GEFSCGP_500_meanwind_012.txt.gz
Wind_Speed
35 34 34 34 35 36 36 35 34 34 34 32 27 23 20 20 22 22 21 23 24 23 23 23 22 21 19 18 19 20 21 22 22 20 18 17 17 17 17 16 15 15 15 16
35 33 33 34 34 34 35 35 34 33 33 31 27 23 19 19 21 23 23 25 25 24 23 23 23 22 21 20 20 21 21 22 22 21 20 19 19 19 19 18 18 18 19 20
33 33 35 34 33 33 32 31 31 31 30 30 27 23 20 20 23 25 25 25 25 25 24 25 25 23 22 21 21 21 22 22 21 21 21 21 21 21 21 20 21 21 22 23
28 30 32 33 32 30 30 28 28 26 27 26 26 24 21 23 25 25 24 25 26 26 26 27 27 23 22 22 22 22 21 21 21 22 23 24 24 23 22 22 22 22 22 24
24 25 26 26 27 28 27 27 27 26 26 25 25 26 23 25 26 24 24 25 26 27 27 28 27 24 23 23 23 22 21 21 21 22 24 24 23 22 22 23 23 23 23 23
23 23 22 20 22 24 25 25 26 26 25 25 23 26 25 24 25 24 24 25 26 27 28 29 27 26 25 24 24 24 23 22 22 22 21 21 20 20 21 22 24 24 23 22
25 25 23 21 21 22 22 23 24 25 25 24 23 24 26 24 24 25 25 26 26 27 28 28 27 27 27 27 26 25 24 23 21 20 19 19 18 18 19 20 21 22 20 20
26 25 24 23 23 23 23 24 25 25 24 24 24 25 26 25 24 25 26 26 27 28 28 28 27 27 27 27 26 25 24 22 20 18 17 17 16 16 16 17 18 19 18 17
29 28 28 28 27 26 25 25 25 26 26 26 26 26 25 25 25 26 27 28 29 29 28 27 26 26 26 26 25 23 21 20 18 16 15 15 15 15 15 15 16 16 16 16
30 30 29 30 29 28 27 27 27 27 28 29 28 27 26 25 26 27 28 28 27 27 27 26 26 26 26 25 23 21 19 18 17 15 14 13 13 14 15 16 16 17 17 17
26 29 28 30 32 31 28 28 28 28 29 29 29 26 24 24 24 25 26 27 27 27 27 26 25 25 25 25 23 21 19 18 17 16 15 14 14 15 16 16 17 18 18 19
27 27 27 27 31 33 33 31 30 30 29 28 28 26 23 23 24 26 28 29 28 27 25 24 23 24 25 24 23 20 18 18 18 18 17 17 17 18 18 18 19 19 20 20
28 28 28 25 27 30 32 31 31 32 30 28 27 27 26 24 25 26 28 29 28 26 24 23 23 24 25 24 23 20 18 17 17 18 19 20 21 21 20 20 20 20 20 20
28 29 27 23 23 24 27 29 30 29 28 30 30 30 29 28 28 28 28 28 27 25 25 24 24 24 25 24 22 18 17 17 17 18 20 21 22 22 22 22 21 20 20 19
26 28 28 25 21 21 22 25 28 30 32 35 34 33 30 29 30 31 31 29 26 25 25 25 25 25 25 24 21 19 19 19 20 21 21 22 22 22 23 23 22 21 21 20
25 26 27 25 23 22 22 22 26 30 32 33 33 30 27 28 30 31 31 30 27 26 26 26 27 26 25 23 22 22 23 24 25 26 25 24 23 23 23 23 23 22 22 22
24 24 24 22 20 20 18 20 22 23 24 27 28 26 25 26 28 29 29 30 30 28 28 28 26 25 23 22 23 25 27 27 27 27 27 25 24 24 24 24 24 24 24 24
23 22 23 21 19 17 16 17 16 16 18 20 21 22 21 21 21 22 24 25 26 26 25 23 22 21 21 23 25 27 27 27 27 26 25 25 24 24 25 25 25 25 25 25
22 21 21 19 16 15 15 13 13 13 12 11 11 11 9 6 6 8 10 13 14 15 15 16 17 19 21 23 24 25 26 26 25 25 25 25 24 24 24 24 25 25 24 24
21 20 18 17 15 14 14 12 11 9 7 6 5 4 3 4 3 3 3 5 6 8 10 13 15 18 20 21 22 23 23 24 25 25 25 26 25 25 25 26 27 27 27 27
23 20 18 17 16 16 15 13 11 11 10 9 8 7 6 6 5 4 3 3 5 7 10 13 15 17 18 19 21 22 23 24 24 25 25 25 26 26 27 28 28 29 29 30
23 20 18 18 19 20 19 17 15 14 14 12 10 8 7 6 5 3 2 4 6 9 11 13 15 16 18 19 21 22 23 23 23 23 22 23 23 24 26 27 28 29 30 30
23 23 21 21 22 22 22 20 17 17 16 13 11 9 7 5 3 1 2 5 8 11 13 14 15 16 18 18 19 21 21 21 20 19 19 19 20 21 23 25 27 28 28 28
26 28 26 26 26 26 25 23 21 19 17 14 11 9 7 6 4 3 4 7 10 13 13 14 15 16 16 18 19 20 19 18 16 16 16 16 17 18 20 21 22 23 24 24
28 32 31 29 28 28 26 25 23 21 18 15 12 9 8 6 5 5 5 7 11 13 13 13 14 15 16 18 19 19 17 14 14 14 14 14 15 17 17 17 15 13 15 17
27 31 33 31 30 28 27 27 26 24 19 15 12 10 8 7 6 7 7 9 11 12 13 13 14 15 17 18 18 17 15 13 13 13 13 14 14 15 15 16 12 6 4 8

GEFSCGP_500_meanwind_018.txt.gz
Wind_Speed
38 38 38 39 39 39 39 38 36 36 35 33 32 30 28 27 26 26 25 24 25 25 23 22 22 22 22 21 22 23 24 24 24 23 20 19 19 21 22 21 19 18 17 16
39 39 39 40 41 40 40 39 38 37 36 35 33 31 29 28 27 27 27 25 25 25 25 24 23 23 22 22 23 24 24 25 25 24 23 22 22 23 24 23 22 22 20 19
33 37 38 39 38 38 38 37 36 36 34 33 31 29 29 28 29 29 28 27 26 25 25 24 24 23 23 23 25 25 25 26 26 26 26 26 25 26 26 26 26 25 24 22
27 30 31 32 33 33 34 34 34 33 32 32 31 30 28 27 28 29 29 28 26 25 25 26 26 25 25 25 25 25 25 27 28 28 28 28 29 29 29 29 28 27 26 25
24 25 27 27 28 29 29 30 31 31 31 31 30 29 26 25 26 27 28 28 27 25 25 26 26 26 26 26 26 26 27 28 29 29 29 30 30 31 31 30 30 29 29 28
25 25 26 26 27 27 28 28 29 28 28 28 27 27 27 25 25 25 26 26 26 24 24 24 25 26 26 27 27 27 27 27 28 29 30 30 31 31 31 29 29 28 28 28
24 26 26 26 27 27 27 27 26 26 25 25 26 26 26 26 23 22 22 23 22 22 22 23 24 25 26 27 27 27 27 27 27 28 29 29 29 28 28 27 26 26 26 26
23 25 27 27 27 28 27 26 26 25 24 24 24 23 21 21 21 19 18 19 20 21 22 23 24 25 26 27 26 25 26 26 27 27 26 25 24 24 24 24 23 22 22 22
24 24 25 27 27 26 27 27 27 26 26 26 25 23 19 18 18 18 18 19 20 22 23 24 24 25 25 25 25 24 24 25 26 25 24 22 21 20 20 20 19 18 18 18
26 25 24 25 25 26 26 27 27 26 26 27 27 25 20 18 17 18 19 20 21 22 22 22 22 22 22 23 23 23 23 23 24 24 23 21 20 19 18 17 16 16 16 17
26 26 25 24 24 25 25 26 27 28 28 27 26 24 21 16 16 17 18 19 20 20 21 21 22 22 22 22 22 21 21 22 23 23 22 21 20 19 18 16 16 15 15 16
25 26 25 24 25 25 26 26 27 28 28 28 28 25 23 21 20 21 21 22 22 22 22 22 22 23 22 22 21 20 21 22 23 22 21 20 20 20 20 19 18 17 17 17
25 25 25 23 24 26 27 27 27 28 29 30 30 27 27 25 25 25 25 25 25 25 24 24 24 23 23 22 22 21 21 22 22 21 20 20 20 21 21 21 21 20 19 19
26 25 25 24 24 25 24 25 26 26 28 29 29 29 28 28 27 27 27 27 28 28 27 27 26 25 24 23 22 21 22 23 22 21 21 21 21 22 22 23 23 22 22 22
27 26 26 26 24 23 23 23 23 24 25 27 26 26 26 27 28 29 29 31 30 29 29 28 27 25 23 22 22 23 23 23 22 22 23 23 23 23 23 23 24 24 24 24
27 25 25 24 22 20 19 19 20 19 20 22 23 24 26 27 28 28 29 30 30 29 28 27 26 25 24 23 23 24 24 23 23 24 24 25 24 23 23 23 24 24 25 25
24 21 20 19 19 16 15 16 16 17 17 19 19 20 22 24 24 24 24 25 26 26 25 24 24 23 23 23 23 23 23 22 23 23 24 24 23 23 23 23 23 24 24 25
18 14 14 14 15 14 14 14 14 15 15 15 15 16 17 17 18 17 17 17 17 19 19 20 20 20 21 21 22 22 22 22 23 23 23 23 22 23 23 23 23 23 24 24
15 9 7 9 13 14 16 15 14 13 13 12 12 12 11 11 12 11 9 8 9 10 12 13 14 15 17 17 18 20 21 22 22 22 22 22 23 23 23 23 23 23 23 23
12 7 8 11 12 15 17 16 15 13 13 12 11 11 10 8 7 6 4 3 4 5 6 8 10 13 15 16 18 19 20 21 21 22 22 22 23 23 23 23 24 24 24 24
13 10 13 15 14 16 17 18 17 17 16 14 13 11 9 6 5 3 2 2 3 5 7 9 11 12 14 16 17 18 19 19 20 21 21 21 21 21 21 21 22 23 24 25
14 13 15 17 17 17 18 19 21 19 17 15 14 11 7 5 3 3 3 3 4 6 8 10 11 12 13 14 15 16 16 18 18 19 19 18 18 18 18 19 20 22 24 26
15 14 15 17 18 18 19 22 22 19 18 16 13 10 7 5 3 3 3 5 6 7 10 11 11 11 11 12 13 14 16 16 16 16 16 15 15 15 16 18 19 21 23 25
16 13 15 17 19 19 18 21 21 20 19 17 13 10 7 5 4 4 5 6 7 9 11 11 11 11 11 12 13 14 15 15 14 14 13 12 13 14 15 16 17 19 21 22
18 12 14 17 19 17 18 19 19 18 18 16 12 10 8 5 4 5 5 6 8 10 11 11 11 11 11 12 13 14 14 13 12 11 10 11 12 13 14 15 16 16 16 15
19 11 9 14 18 18 17 18 17 19 18 15 12 10 7 5 4 4 5 6 8 9 11 11 12 12 11 12 12 12 12 11 10 9 10 11 11 12 13 14 14 14 14 10

GEFSCGP_500_meanwind_024.txt.gz
Wind_Speed
31 32 35 36 38 38 38 38 37 38 39 39 38 38 36 36 37 37 34 31 29 29 29 29 25 23 22 21 20 20 21 20 20 20 20 21 21 21 20 19 21 22 22 22
29 32 35 37 38 39 40 41 42 43 43 42 42 41 39 38 37 36 35 32 31 29 29 31 28 25 23 21 21 21 21 21 21 22 21 21 22 22 21 22 22 23 23 24
25 28 31 32 34 38 40 42 42 42 43 44 45 43 41 40 39 37 37 35 32 30 31 32 29 25 24 22 21 21 21 21 22 22 22 22 22 23 23 23 24 24 25 26
23 26 28 29 30 33 36 37 38 39 39 40 41 43 37 37 37 36 34 33 31 30 30 32 30 26 25 23 22 21 21 21 21 22 22 23 23 23 24 24 25 26 27 27
20 25 28 28 29 32 33 34 35 35 36 36 34 36 32 31 32 29 27 29 29 29 29 31 29 27 26 23 22 21 20 20 21 21 22 22 23 23 24 25 26 27 27 27
16 21 24 26 27 29 31 32 33 33 32 33 30 32 29 24 25 24 22 23 26 27 27 29 27 25 24 22 21 20 20 20 21 21 21 22 23 24 25 26 27 27 27 26
16 18 22 26 27 26 27 27 28 27 26 25 22 23 23 22 23 21 20 21 22 24 25 24 22 21 20 20 20 20 20 21 21 21 22 22 23 25 25 25 25 25 25 24
20 18 21 27 28 25 25 23 23 23 23 21 18 17 16 17 18 19 19 20 20 20 22 21 18 18 18 18 19 20 20 21 21 21 22 23 23 24 24 24 23 23 22 21
25 24 24 28 29 27 26 23 21 23 25 24 22 18 14 13 16 18 20 20 18 18 18 18 16 16 16 17 19 20 20 20 21 21 22 23 22 22 22 22 21 21 20 19
30 31 29 30 30 29 27 25 23 25 26 23 19 18 19 16 15 13 14 15 16 17 16 17 17 17 17 18 19 20 20 20 21 21 21 22 21 21 21 20 19 19 18 18
35 37 35 33 30 29 27 25 25 27 25 21 19 21 23 22 20 16 15 15 16 16 17 18 17 17 17 18 19 20 20 21 21 21 21 21 20 20 19 19 18 18 18 18
39 40 39 33 28 28 27 26 26 27 27 26 25 23 23 24 21 16 14 13 16 17 17 18 18 18 18 18 19 20 21 21 21 22 22 22 21 21 20 19 18 18 19 19
42 41 39 30 24 25 26 26 25 25 25 24 24 25 26 26 25 21 17 15 17 18 20 21 21 21 20 20 21 22 23 23 22 22 23 23 23 23 22 21 20 20 20 20
42 38 32 26 21 21 23 22 23 25 25 24 25 26 26 27 26 24 20 17 17 19 21 22 23 23 22 23 24 24 24 24 23 24 23 23 24 23 23 22 22 22 22 22
38 32 25 20 16 15 15 15 15 18 21 21 21 22 22 21 19 16 15 15 17 19 21 23 24 25 24 24 25 25 24 24 24 24 24 24 24 23 23 23 23 23 23 23
35 28 21 14 9 9 10 12 12 14 15 16 15 13 12 12 11 11 12 14 15 17 19 20 22 23 23 23 22 23 22 23 24 24 24 24 24 23 23 23 24 23 23 24
34 25 18 10 2 5 7 9 8 8 10 9 8 5 4 6 7 7 8 9 10 11 13 14 17 19 20 20 20 21 22 22 23 24 24 24 24 24 24 24 24 24 24 24
31 23 15 6 1 3 6 6 7 7 6 6 5 3 3 4 4 5 5 5 4 4 5 7 10 13 14 15 16 17 18 19 21 22 22 23 23 24 24 24 24 25 24 24
30 22 13 5 3 5 8 7 8 8 6 4 4 3 3 2 3 3 4 4 4 3 2 2 4 6 9 11 13 15 16 17 19 21 22 22 23 23 24 24 24 25 24 24
27 22 13 7 6 7 7 6 7 8 7 6 4 3 3 2 2 3 3 3 4 4 3 3 4 6 8 10 12 14 16 17 19 20 21 21 22 22 23 23 23 23 23 23
28 21 14 8 6 6 5 4 6 7 6 8 5 4 3 2 1 2 3 4 4 4 5 6 7 9 11 12 13 15 16 17 19 19 20 21 21 21 21 21 21 21 22 23
28 22 14 8 5 4 5 4 5 6 6 7 5 4 2 1 2 3 3 4 5 6 7 8 10 11 12 13 14 15 17 17 18 19 20 20 20 19 18 18 19 20 21 21
28 21 15 8 5 3 3 3 3 4 4 5 5 3 2 1 2 3 3 4 5 7 8 10 11 12 13 14 15 16 17 18 18 18 18 18 17 17 17 17 18 19 19 21
29 21 15 9 6 4 2 3 4 3 2 2 4 3 2 3 3 3 4 6 7 8 10 12 13 14 15 15 16 16 17 17 17 17 17 16 16 16 16 16 17 17 18 19
30 22 15 10 7 5 3 3 4 4 3 3 4 2 2 3 2 3 5 7 8 10 12 13 15 15 15 16 16 17 17 17 17 16 16 15 16 16 16 16 16 16 17 17
31 24 15 10 7 5 2 1 3 3 3 3 4 2 2 1 1 4 6 8 10 11 13 14 16 16 16 16 16 16 16 16 16 16 16 16 16 15 15 15 15 15 16 16

GEFSCGP_500_meanwind_030.txt.gz
Wind_Speed
22 24 26 29 31 32 34 35 36 37 38 39 39 38 37 37 37 36 36 36 35 32 30 30 30 29 26 24 22 21 20 19 19 19 19 18 17 17 17 18 17 17 17 17
20 23 26 28 30 33 35 36 38 39 40 41 41 40 38 38 39 39 39 37 34 33 34 33 32 30 28 25 24 23 23 22 21 21 21 20 19 18 17 17 17 17 17 18
18 21 24 26 28 30 33 35 37 39 39 40 41 40 37 38 39 39 39 36 34 34 35 33 32 32 29 27 26 26 25 24 23 23 22 21 20 18 18 17 18 18 19 19
15 18 21 23 26 29 31 33 35 37 38 38 39 40 34 35 36 36 35 33 31 30 31 32 32 31 30 28 27 28 28 27 26 25 23 22 21 20 19 18 18 19 20 21
11 14 17 20 23 26 27 28 30 32 33 33 33 35 31 32 32 32 32 32 30 27 28 30 30 30 30 30 30 29 29 28 27 24 23 22 20 20 19 19 20 21 22 23
13 17 20 22 24 27 28 29 29 29 29 28 26 28 28 28 28 28 29 29 29 27 26 27 29 30 31 32 32 31 29 27 26 23 21 21 21 21 21 21 22 23 24 24
16 21 25 28 30 30 31 32 33 32 28 25 23 23 25 24 24 24 24 25 25 25 25 26 28 28 31 33 34 31 27 26 23 21 20 20 20 21 21 22 23 24 25 25
21 24 29 31 33 34 34 34 34 33 30 26 22 22 22 21 21 21 21 21 22 23 24 25 26 26 27 28 28 27 24 22 20 18 18 19 20 21 22 23 23 24 24 23
28 29 31 34 35 37 37 36 34 34 32 29 25 23 24 23 20 19 20 20 20 21 22 24 24 24 22 21 20 20 18 16 15 16 18 19 21 22 22 22 22 21 21 21
33 35 36 37 38 39 40 38 34 32 31 29 26 24 24 23 21 19 18 19 19 20 21 23 22 21 19 17 16 14 12 14 15 17 19 20 21 21 21 20 20 19 19 19
37 38 38 38 39 39 37 34 32 30 29 27 26 24 21 19 18 17 19 19 19 18 20 20 20 18 16 14 13 13 14 15 17 18 20 20 21 21 20 20 20 19 19 19
37 38 36 34 33 31 26 25 25 26 26 25 24 23 18 14 14 14 15 15 16 14 14 15 15 13 12 12 12 14 15 17 18 19 20 21 22 22 21 21 20 20 21 20
37 36 32 27 24 20 17 16 16 18 20 21 18 18 16 14 11 10 10 10 10 10 10 11 11 11 10 11 14 16 17 18 19 20 21 22 23 22 21 21 21 21 21 21
35 31 28 24 18 14 9 7 8 10 12 12 12 11 10 9 9 8 8 8 8 8 9 10 12 13 13 14 16 17 18 19 21 22 22 23 23 22 20 19 20 20 20 20
31 27 23 19 14 9 4 1 2 5 6 6 6 6 6 5 5 5 5 6 7 7 8 10 12 13 13 14 16 18 19 20 22 22 22 23 22 21 19 18 19 19 19 19
29 25 22 18 13 8 6 6 7 8 9 7 5 3 1 1 2 1 1 2 4 6 7 9 11 12 13 13 15 17 17 19 21 22 22 20 20 18 17 17 18 18 19 19
28 25 21 16 12 11 10 10 11 12 12 10 9 8 7 6 4 3 1 1 2 4 5 7 8 9 9 11 12 14 15 16 18 19 19 18 18 17 16 17 19 19 20 20
28 25 21 17 14 13 12 11 12 12 13 13 12 11 10 7 5 4 3 3 2 2 2 1 2 4 6 8 9 10 12 13 15 16 17 18 18 18 18 19 19 20 20 20
28 24 21 19 16 16 13 13 13 13 13 13 11 10 9 8 6 5 4 4 4 3 3 3 3 3 4 5 7 9 11 13 14 16 17 18 18 19 19 19 19 20 20 20
27 24 22 20 18 16 14 13 13 13 12 10 9 9 8 6 5 5 5 5 5 4 4 4 4 5 6 8 9 11 13 14 16 17 18 19 19 19 20 19 19 19 19 20
23 22 21 20 18 17 15 13 12 11 10 9 8 8 7 6 6 6 6 5 5 5 6 6 7 8 9 11 12 13 15 16 17 18 18 19 19 19 19 19 19 19 19 19
21 20 19 18 17 16 14 12 11 10 9 8 8 7 7 7 7 6 6 5 5 6 7 8 9 11 12 13 14 15 16 17 18 18 19 19 18 18 18 18 18 18 18 19
21 18 16 15 15 14 12 10 9 8 7 7 6 6 7 6 5 5 5 5 6 7 8 10 12 13 14 15 15 16 17 17 18 18 18 18 17 17 17 17 17 17 18 18
20 18 15 13 12 11 10 9 9 7 6 5 5 6 5 5 4 4 4 5 6 8 9 11 13 15 15 15 16 16 17 17 17 17 16 16 16 16 16 16 17 17 17 17
21 17 15 13 11 9 8 7 6 5 4 4 4 4 3 3 3 3 3 5 7 8 10 12 14 15 15 16 16 17 17 17 16 16 15 15 14 14 15 15 15 15 16 16
23 19 15 12 10 7 5 4 2 2 2 2 2 2 2 2 2 2 3 5 7 9 12 13 14 15 16 16 17 17 17 17 16 15 14 14 13 13 13 13 13 14 14 14

GEFSCGP_500_meanwind_036.txt.gz
Wind_Speed
21 23 25 27 28 30 31 33 34 35 37 37 37 37 38 40 40 40 40 39 38 36 33 32 31 29 27 25 23 22 21 22 23 23 22 22 22 21 20 20 19 20 20 21
20 23 25 27 29 31 32 34 36 37 38 39 38 38 40 41 42 42 42 42 41 39 37 35 34 32 30 28 26 24 24 24 25 25 25 25 24 23 23 22 22 22 22 22
18 22 24 27 29 31 33 35 36 37 38 39 39 38 39 40 40 41 41 41 41 40 39 38 36 34 32 31 29 27 27 27 28 28 28 27 26 26 25 24 23 23 22 23
18 21 24 26 29 31 32 34 36 36 37 37 37 37 35 35 35 36 37 37 37 38 37 37 37 35 34 33 32 31 31 30 31 32 31 30 29 28 26 24 24 23 23 24
18 21 24 27 29 32 33 34 35 36 36 36 34 35 33 32 32 33 34 35 35 35 35 35 35 35 35 34 35 34 33 35 35 35 35 34 30 27 24 23 23 23 23 23
22 26 29 31 34 36 37 37 37 37 37 37 34 34 34 32 30 30 31 32 33 33 33 33 34 35 35 36 37 36 37 38 37 38 39 34 26 23 22 22 21 22 22 23
28 31 34 36 38 40 41 41 41 41 39 37 34 33 32 29 28 27 27 28 29 31 31 31 32 34 35 36 36 36 39 38 39 38 35 27 22 19 19 19 20 21 22 22
31 34 37 39 41 42 41 41 41 41 39 36 32 30 29 27 26 26 26 26 27 28 29 30 31 32 33 35 35 36 37 37 35 32 28 22 18 17 17 17 18 20 21 22
34 36 38 40 40 40 39 38 38 38 36 33 31 28 27 26 25 24 25 24 24 26 27 28 28 28 29 31 33 34 34 32 29 24 20 18 16 17 17 18 19 21 21 22
37 37 37 38 37 35 34 32 30 30 29 27 25 23 23 21 21 21 21 21 20 21 22 24 24 25 26 26 27 28 27 24 21 17 16 16 16 17 17 18 20 21 22 23
36 35 34 33 31 28 25 23 21 20 19 19 19 18 15 15 16 16 16 16 15 14 16 16 18 19 20 21 18 18 17 16 15 15 14 14 15 17 18 20 21 22 23 24
34 32 29 27 25 22 19 15 12 10 10 12 13 12 11 11 10 9 8 9 10 10 10 10 12 13 15 15 12 11 11 11 11 11 13 14 16 18 20 22 23 23 24 25
31 29 26 23 21 19 16 11 7 3 2 3 5 5 5 4 4 4 4 3 3 3 3 3 5 7 8 9 9 8 9 9 10 12 14 16 19 20 22 23 24 24 24 24
30 28 26 24 22 19 15 11 7 5 6 5 4 4 4 2 1 2 4 4 3 2 2 2 2 4 4 5 6 8 9 11 12 14 16 18 19 20 21 21 21 22 22 23
29 28 27 24 23 21 19 15 13 10 11 10 8 8 6 5 5 5 7 8 7 5 4 4 3 3 3 4 5 8 11 13 14 16 18 20 20 19 19 18 18 19 19 20
28 27 26 24 23 21 19 18 16 15 14 13 11 10 9 10 9 8 9 10 9 9 7 6 4 2 1 3 6 8 10 12 13 16 18 18 17 17 16 16 15 16 17 17
27 26 25 23 21 20 19 17 15 14 14 13 11 11 11 11 11 10 10 11 11 10 10 8 7 5 4 4 5 6 8 10 12 13 14 14 15 15 15 15 15 15 17 18
25 25 24 22 20 19 18 17 15 15 14 13 12 12 12 11 11 11 11 11 12 12 12 11 9 8 7 7 7 7 9 10 11 12 13 14 15 15 16 15 15 16 17 18
23 23 22 21 19 18 17 16 15 13 13 12 11 11 11 11 11 10 11 11 11 11 11 11 10 9 9 9 9 10 10 11 12 14 15 16 16 16 16 16 16 17 17 18
22 21 20 19 18 16 15 14 13 12 11 11 10 10 10 11 10 10 10 10 11 11 10 10 10 10 10 11 11 11 12 13 14 15 16 16 16 16 16 16 17 17 17 18
22 19 17 17 16 15 14 13 12 10 9 9 9 9 9 9 9 9 9 9 10 10 10 11 11 11 12 12 13 13 14 14 15 15 16 16 16 16 16 16 17 17 17 18
22 19 17 15 15 14 12 11 11 9 8 7 7 7 7 7 8 8 8 9 9 10 10 11 12 13 13 14 15 16 16 16 17 17 16 16 15 15 16 16 16 16 16 16
21 20 17 16 15 14 11 10 9 8 7 6 5 5 5 5 6 7 8 9 10 11 12 13 14 14 15 16 17 18 18 18 18 18 17 16 16 15 15 14 14 14 14 14
22 20 17 16 15 14 12 10 8 7 6 5 4 4 4 4 4 6 7 9 10 12 13 14 15 16 17 18 19 19 19 19 19 18 18 17 16 15 14 14 13 13 12 12
22 21 18 16 16 14 12 9 8 7 6 5 3 3 3 3 4 5 7 9 11 12 14 15 16 16 17 18 19 19 19 19 19 18 18 17 16 15 14 13 13 12 11 11
20 21 20 18 17 16 13 10 8 6 5 4 4 4 4 3 3 5 6 8 10 12 13 15 16 17 18 18 19 19 19 19 18 18 18 17 16 15 14 14 13 12 12 12

GEFSCGP_500_meanwind_042.txt.gz
Wind_Speed
20 22 24 26 27 29 31 32 33 35 36 36 38 38 39 38 37 37 37 36 35 35 34 34 33 33 33 32 31 31 30 30 29 27 27 27 26 25 25 24 23 23 23 22
19 22 24 26 28 30 32 34 35 37 38 38 39 40 40 40 40 40 39 38 37 36 36 35 35 35 35 35 35 35 34 33 32 30 30 30 30 29 29 28 27 25 25 24
19 21 23 26 28 30 32 34 36 38 39 39 40 40 40 39 39 39 38 37 37 35 35 35 35 35 36 36 36 37 36 36 35 34 34 35 34 34 34 32 30 27 27 26
17 20 23 26 29 31 34 35 37 38 38 39 39 38 40 37 36 35 35 34 33 33 33 33 33 34 34 35 37 38 39 39 38 38 38 38 37 38 37 35 32 30 27 26
18 22 25 28 31 32 35 37 38 39 39 39 39 38 38 35 34 33 32 32 31 31 31 32 32 33 35 36 36 37 39 40 40 41 41 41 40 41 40 39 34 31 29 27
21 24 26 29 31 33 35 36 37 38 38 39 36 35 36 34 31 30 30 30 30 30 31 31 32 34 35 36 37 38 39 40 41 42 43 43 42 43 43 40 36 32 29 26
23 25 26 29 32 34 35 35 35 34 32 31 31 31 33 31 28 28 27 27 27 28 29 30 31 32 33 35 36 36 37 39 41 42 42 42 43 41 40 39 36 32 28 25
23 24 25 28 29 31 31 31 29 27 25 23 23 24 26 25 25 24 24 24 24 25 26 27 28 30 31 31 33 34 34 35 37 39 41 41 41 40 39 36 33 28 23 21
21 23 26 27 28 28 28 25 22 19 17 18 18 19 20 20 20 20 20 21 21 23 24 25 26 27 28 28 28 29 31 32 33 35 37 38 36 35 32 30 27 23 19 17
22 24 26 27 27 26 23 20 16 12 9 9 12 13 12 13 14 14 15 17 18 19 20 20 21 22 22 23 22 23 25 26 26 26 28 29 28 26 25 22 19 16 14 13
24 25 26 26 25 24 20 16 13 8 3 2 3 5 5 5 7 8 10 12 13 13 13 14 14 15 16 17 17 16 18 19 19 20 21 20 19 18 17 14 11 10 10 12
24 25 26 26 24 22 19 17 13 10 7 4 3 2 1 1 2 4 5 5 6 7 7 8 8 8 9 10 10 10 10 12 12 12 12 11 11 11 10 9 8 9 12 14
25 25 26 27 26 23 20 18 15 13 11 8 7 6 4 3 3 2 3 2 2 3 2 1 2 3 4 4 4 4 5 5 5 6 6 6 6 7 7 7 8 10 13 15
25 25 26 26 25 24 22 20 18 16 14 13 11 9 9 8 8 8 9 9 8 7 6 5 5 4 4 3 2 2 2 2 2 2 2 3 4 5 7 8 10 12 13 15
24 25 25 25 25 24 23 22 19 17 16 15 14 13 13 13 13 13 13 13 12 11 10 9 10 9 8 6 5 4 3 2 1 2 3 4 6 7 8 10 11 13 14 15
23 24 24 24 23 22 22 21 20 18 17 17 17 16 16 15 15 15 16 16 15 14 13 12 12 11 9 8 7 6 5 3 3 4 5 7 8 9 10 11 13 14 15 16
23 23 23 23 21 21 21 20 18 16 16 15 15 15 15 15 16 17 17 16 16 15 14 13 13 12 11 9 8 7 7 6 6 6 7 8 10 11 12 14 14 15 16 17
22 22 22 22 20 20 19 19 18 16 15 15 15 14 15 16 16 16 16 16 15 15 15 14 13 12 11 10 9 8 8 7 8 8 9 10 12 13 14 15 16 17 17 18
22 22 22 21 20 18 17 17 16 16 15 15 15 14 15 15 15 15 15 15 15 15 14 13 13 12 11 11 11 10 10 10 10 10 11 12 13 14 15 16 17 18 18 19
22 21 21 20 19 18 16 15 15 14 15 14 14 14 14 14 15 14 14 14 14 14 14 13 13 13 12 12 12 12 11 11 11 12 12 13 13 14 14 15 15 16 17 18
21 21 21 20 19 17 15 14 13 13 13 12 11 11 12 13 13 13 13 13 13 14 14 14 14 14 13 13 13 13 12 12 12 12 12 12 12 13 13 13 14 15 16 16
20 21 21 20 19 17 14 13 12 11 11 11 10 10 10 10 11 11 11 12 13 14 14 15 15 14 15 15 14 14 13 13 13 13 12 12 12 12 12 12 13 13 13 14
19 20 20 20 19 18 16 12 11 10 10 10 9 9 9 9 9 10 11 12 13 14 15 15 15 16 16 16 15 15 15 15 14 14 14 13 13 12 12 12 11 11 11 11
17 18 19 20 19 18 17 14 11 9 9 8 8 8 7 7 8 8 9 11 12 13 14 15 16 16 17 17 16 16 16 16 16 16 15 15 14 13 13 13 12 11 11 10
15 16 18 19 19 19 18 15 12 10 9 8 7 7 7 7 7 7 8 10 11 13 14 15 16 16 17 17 17 17 17 17 17 17 17 16 16 15 15 14 13 13 12 11
13 14 16 18 19 19 18 16 13 11 10 9 7 5 6 6 6 6 7 9 10 12 13 14 15 16 16 17 17 18 17 17 17 17 17 17 17 16 16 15 15 14 14 13

GEFSCGP_500_meanwind_048.txt.gz
Wind_Speed
17 19 21 22 23 24 25 26 28 30 35 36 37 37 39 42 41 40 40 41 41 40 40 39 37 36 36 35 35 34 34 34 33 32 31 32 32 31 29 28 27 27 27 26
17 19 19 21 23 24 26 29 31 34 37 38 38 38 39 41 42 42 42 43 43 41 41 41 39 38 38 37 37 36 36 36 36 35 34 34 35 34 32 31 30 30 29 29
17 18 19 21 23 25 26 30 32 33 35 36 37 37 38 39 42 43 42 42 42 40 40 40 39 39 38 38 37 37 37 37 37 37 36 36 35 35 35 34 33 33 32 31
15 18 20 23 25 26 27 29 31 31 33 33 33 33 34 35 40 40 39 39 39 39 38 37 37 36 36 36 37 37 37 37 37 37 37 36 36 36 35 35 36 36 36 35
17 19 20 21 23 25 26 28 30 32 32 31 28 28 31 34 38 39 37 36 36 36 36 35 35 34 34 35 35 36 37 37 37 37 37 37 37 36 36 37 37 37 38 37
16 16 18 21 23 25 27 29 30 30 28 26 25 25 30 33 36 37 37 35 35 34 33 33 33 33 33 33 34 35 36 37 37 37 38 38 37 36 37 38 38 39 38 39
15 16 19 22 24 25 27 28 27 23 19 19 21 23 28 31 33 35 35 35 34 33 32 32 33 33 33 33 34 35 36 36 37 37 38 37 37 36 37 38 39 39 40 40
17 21 22 22 23 25 25 24 22 18 14 13 16 20 23 26 27 29 30 30 28 29 30 31 32 32 32 32 33 34 34 35 35 35 35 35 35 35 36 37 36 37 38 37
17 20 21 22 23 24 23 21 19 15 11 11 12 14 17 19 21 23 24 25 25 24 26 27 28 28 29 29 29 30 30 30 30 31 32 32 32 32 32 32 32 33 32 32
18 20 21 22 23 24 23 21 17 13 10 8 11 13 14 15 17 17 17 18 19 20 20 22 24 24 25 25 24 25 25 25 26 26 27 27 27 27 26 26 27 27 29 29
19 20 21 22 23 23 23 21 17 13 11 9 9 10 11 11 11 11 11 12 12 13 15 17 18 19 20 20 19 19 19 19 19 19 20 20 20 21 22 23 23 23 23 21
19 20 20 21 21 22 22 21 18 15 13 12 12 13 13 12 11 10 8 8 8 9 11 11 11 11 12 11 11 12 12 11 11 11 11 12 14 15 15 15 16 15 15 16
20 21 21 22 22 22 21 20 18 17 15 14 12 15 15 14 14 13 9 9 8 7 6 4 4 4 3 3 3 4 5 5 5 5 5 7 7 8 8 7 7 8 9 10
20 21 21 21 21 20 20 20 19 18 17 17 15 15 15 15 15 15 14 13 14 12 12 11 11 9 9 7 5 4 3 3 2 2 1 1 1 1 2 3 5 5 6 6
21 21 20 19 19 19 19 19 19 18 18 18 18 17 18 17 17 17 18 18 18 17 17 17 15 13 12 11 10 9 8 7 7 6 5 4 3 3 3 4 5 6 7 8
21 22 20 18 18 19 19 19 19 18 17 17 17 17 17 18 18 19 20 20 20 20 19 18 17 16 14 13 12 11 10 8 7 7 6 6 6 6 7 7 8 9 10 11
21 22 22 20 18 18 19 19 18 17 17 16 16 16 16 17 18 19 20 20 20 20 20 20 18 18 16 16 14 13 12 10 9 9 8 8 8 8 9 10 11 11 12 13
20 22 22 21 19 19 18 17 16 16 15 15 15 15 15 16 17 17 19 19 20 19 19 19 18 17 17 16 15 14 13 12 11 11 10 10 10 10 10 11 11 12 13 13
20 21 22 22 20 19 17 16 15 15 14 14 14 14 14 15 15 17 18 19 19 19 19 18 18 17 17 17 16 15 14 14 14 13 12 12 11 11 11 11 11 12 12 13
19 20 21 22 21 19 18 16 15 14 14 14 14 14 14 14 15 17 17 18 18 18 18 18 18 18 17 17 17 16 16 15 15 15 14 14 14 13 13 12 12 12 12 13
17 19 20 22 21 19 17 17 15 14 14 13 13 13 13 13 15 15 16 17 17 18 18 18 18 18 18 18 18 17 17 17 17 17 16 16 15 15 14 13 13 13 13 12
17 18 20 20 21 19 17 16 15 14 13 13 12 12 12 12 13 14 15 15 16 17 17 18 18 18 18 18 18 18 19 19 19 18 18 18 17 16 16 15 14 14 14 13
14 17 18 20 20 19 18 16 15 14 13 12 11 11 11 11 12 13 14 14 15 16 16 17 18 18 19 19 19 20 20 20 20 20 20 19 19 18 17 17 16 16 16 15
13 14 16 17 18 18 18 17 15 14 13 12 10 10 10 10 10 11 12 13 14 15 16 17 17 18 19 19 20 19 20 20 20 21 21 21 20 19 19 18 17 17 17 16
12 13 14 15 16 17 17 17 16 15 13 12 10 9 9 9 9 9 11 11 12 13 14 15 16 17 18 18 19 20 20 20 20 20 20 21 21 20 19 19 19 18 18 18
11 12 12 13 14 15 15 15 16 15 14 12 11 9 8 8 8 8 9 10 11 11 12 13 15 15 16 17 18 19 20 20 20 20 21 21 21 20 20 20 19 19 19 19

GEFSCGP_500_meanwind_054.txt.gz
Wind_Speed
15 17 18 19 20 21 22 23 25 27 29 30 32 32 33 35 35 37 38 37 38 38 38 38 39 39 40 39 38 38 37 35 34 33 32 32 31 32 31 31 30 30 28 26
15 17 18 18 20 21 23 23 24 27 29 31 32 33 35 36 38 39 39 39 39 38 38 38 39 40 41 41 42 42 41 39 37 35 34 34 34 33 33 32 32 32 29 27
14 15 16 18 19 20 21 22 23 25 27 30 33 35 36 37 39 39 39 40 40 39 38 38 39 40 40 40 41 42 42 41 40 38 37 36 35 35 34 33 33 33 31 29
12 14 16 17 17 18 20 21 22 24 27 29 32 34 34 36 37 38 39 40 39 38 36 36 37 38 39 40 41 41 42 41 40 40 39 38 36 35 35 35 35 33 32 32
10 13 14 15 17 18 19 21 22 24 26 27 28 30 32 33 34 35 36 36 36 37 36 35 34 34 35 36 37 38 38 39 39 40 39 38 37 36 36 36 36 35 34 33
9 12 14 15 17 18 19 20 21 21 21 22 24 26 28 29 29 30 31 31 31 32 33 32 30 31 32 32 33 34 35 36 37 38 38 38 38 37 36 36 36 35 34 34
8 12 14 16 17 17 18 18 19 18 18 18 19 21 22 23 24 25 26 26 27 28 28 27 26 26 27 28 29 31 32 34 35 35 36 36 37 36 36 36 36 35 34 33
9 11 13 15 15 16 16 16 16 16 15 14 15 16 17 18 19 19 20 21 21 22 22 23 22 21 22 24 26 27 29 30 31 32 33 34 34 34 34 34 33 33 32 32
12 14 15 15 15 16 15 16 17 16 14 13 13 13 13 14 15 15 15 16 17 17 18 18 17 16 16 17 19 22 24 24 25 27 28 30 30 30 31 31 31 31 31 31
14 15 16 16 16 16 16 17 17 16 14 12 12 12 12 12 12 13 13 12 13 13 13 12 11 11 12 13 14 16 18 20 21 22 23 23 25 26 26 26 26 28 28 28
15 15 15 15 15 16 16 17 16 16 14 12 12 12 12 12 14 14 14 13 12 11 10 10 10 10 10 10 11 11 12 13 14 15 16 17 18 20 21 22 22 22 23 23
17 16 16 15 16 16 17 17 17 16 15 14 13 14 13 14 15 15 15 15 14 14 13 12 11 9 8 6 5 5 5 6 7 8 10 11 12 13 14 15 15 16 17 18
18 18 16 16 16 17 17 17 17 17 16 16 16 16 16 16 16 16 17 17 17 17 17 15 14 13 10 8 7 6 5 4 4 5 5 6 6 7 7 8 9 9 10 10
19 19 18 17 16 16 17 17 17 17 17 17 18 18 18 18 18 17 18 18 18 19 18 17 16 15 14 11 10 9 7 7 6 6 6 5 4 3 4 5 5 6 7 7
20 19 19 18 17 16 17 17 17 17 17 17 18 18 18 18 18 18 19 19 19 18 17 16 15 15 15 14 13 12 11 9 9 8 8 8 7 6 5 4 3 4 5 6
19 20 19 18 17 16 16 17 17 17 16 17 17 18 18 18 18 18 18 19 19 19 18 18 17 17 16 15 15 14 13 12 11 9 8 8 7 6 5 5 5 5 6 7
18 19 19 18 17 17 17 17 17 17 16 16 16 16 17 18 18 18 18 18 19 18 19 19 18 18 18 17 17 16 15 14 13 12 11 10 9 7 7 7 7 6 6 7
17 18 18 18 18 18 18 17 17 17 16 15 15 15 16 16 17 17 18 19 19 19 19 18 18 18 18 17 17 16 16 16 15 15 14 13 12 11 9 8 8 8 8 8
17 18 18 18 19 19 18 17 16 16 15 15 14 15 15 15 16 17 18 19 19 20 19 19 19 19 19 19 19 18 18 17 17 16 16 15 14 13 12 10 10 9 9 10
15 17 17 18 18 18 18 17 15 15 15 14 14 14 14 15 16 17 17 18 19 20 20 20 20 20 20 20 20 20 19 19 18 18 17 16 16 15 14 13 12 11 11 11
13 15 16 16 17 18 18 17 16 15 14 13 14 14 14 15 16 16 17 18 19 19 20 20 21 21 21 20 20 20 20 20 20 19 18 18 17 16 16 15 14 13 12 12
10 12 13 15 16 16 17 17 16 15 14 13 13 13 14 14 15 15 16 17 18 18 19 19 20 20 20 20 20 20 20 20 20 20 19 18 18 18 17 17 16 15 14 14
8 10 12 13 15 15 16 16 16 16 14 12 12 12 13 13 13 14 14 15 15 16 17 18 18 18 19 19 20 20 20 20 20 20 19 19 19 19 19 18 18 17 16 16
8 8 10 11 12 13 14 15 15 15 15 13 12 11 11 11 12 12 12 13 13 14 15 15 16 16 17 18 19 19 20 20 21 20 20 20 19 19 19 19 19 18 18 17
7 7 9 10 10 11 12 12 13 14 14 13 12 11 10 9 10 10 10 11 11 12 13 13 14 15 16 16 17 18 19 19 20 20 20 20 21 20 20 19 19 19 18 18
7 7 8 9 9 9 9 10 11 12 12 13 12 11 10 9 8 9 9 9 9 10 11 12 12 13 14 15 16 16 17 18 19 19 20 20 20 21 21 20 20 19 19 18

GEFSCGP_500_meanwind_060.txt.gz
Wind_Speed
16 18 19 20 21 23 25 26 28 28 28 29 30 31 32 33 34 35 36 37 38 39 40 41 41 42 42 42 40 40 39 38 39 39 39 37 35 35 34 32 30 29 28 29
16 17 18 20 21 23 24 25 26 27 27 29 30 31 32 33 35 36 37 37 39 40 40 41 41 41 41 42 43 42 41 41 41 41 40 39 38 37 37 35 34 33 32 32
16 16 18 19 20 21 22 23 25 26 27 29 30 31 32 33 33 35 35 36 38 39 39 40 40 41 41 41 42 41 41 41 40 40 40 39 38 38 37 37 36 35 34 33
14 15 16 17 18 19 21 22 23 24 25 27 28 29 30 31 31 32 33 34 35 35 36 37 37 38 38 38 39 38 38 38 39 39 39 39 39 38 37 37 36 36 35 35
12 13 14 15 16 18 19 20 20 22 24 25 25 27 27 27 27 28 29 31 31 31 33 33 32 32 32 33 32 33 34 34 35 36 36 36 36 36 37 36 36 36 36 35
10 11 12 14 15 17 18 19 20 21 22 22 23 23 24 24 23 25 26 26 27 27 28 27 27 26 26 26 27 29 30 31 31 32 32 33 33 34 35 35 34 34 34 34
8 10 12 14 15 17 18 19 20 20 20 20 20 20 21 21 21 21 21 22 22 23 22 21 21 21 21 21 22 23 24 25 26 27 28 29 30 31 32 32 32 32 32 32
8 11 13 14 15 16 17 18 18 19 19 18 18 18 18 19 19 19 19 19 19 20 19 17 17 17 17 18 18 18 17 19 21 22 22 23 25 26 27 28 28 29 29 30
9 11 13 14 15 15 16 16 17 17 16 15 15 15 15 16 17 18 18 18 18 17 16 15 14 13 13 14 14 13 13 14 15 16 17 18 20 21 22 22 23 24 25 27
10 11 13 13 14 14 15 16 16 15 15 14 13 13 14 15 16 16 17 17 18 16 16 14 13 12 11 12 11 10 10 9 9 10 12 13 14 15 16 17 18 19 21 23
11 13 13 13 14 14 15 15 15 15 15 14 14 13 14 15 15 16 17 17 18 18 17 16 15 13 12 12 11 10 8 6 6 6 7 8 9 9 11 13 14 16 17 18
13 13 14 14 14 14 15 15 14 14 16 15 14 14 15 16 16 17 18 18 18 18 19 19 17 16 15 14 13 12 11 9 8 6 6 6 5 6 7 8 10 12 13 14
14 15 15 15 15 15 15 15 14 14 15 15 15 15 15 17 18 18 18 18 19 18 19 19 19 19 19 17 15 14 13 12 11 10 9 7 7 6 5 4 4 5 6 8
15 15 16 16 15 15 15 15 14 14 15 15 16 16 16 17 18 19 19 19 19 19 19 19 19 19 19 19 18 16 16 15 14 13 12 11 9 8 7 6 5 4 4 5
15 16 16 16 16 15 15 15 14 14 15 15 15 16 16 17 18 19 20 20 20 20 20 20 20 20 20 20 20 19 18 17 17 15 15 14 12 11 11 10 8 6 4 4
15 16 17 16 16 16 16 15 14 14 15 15 15 15 16 17 18 19 20 20 20 21 21 22 21 21 21 21 20 20 19 19 18 17 17 16 14 13 13 13 12 11 9 8
14 15 16 16 17 16 16 16 14 14 14 14 15 15 15 17 18 18 19 20 20 20 21 22 22 22 22 21 21 21 20 19 19 19 19 18 17 15 15 14 13 12 11 11
13 15 16 16 16 16 16 16 15 14 14 14 14 14 15 16 17 18 19 19 20 21 21 22 23 23 23 23 22 21 21 20 20 20 20 19 18 17 16 15 14 13 12 12
12 14 15 15 16 16 16 15 15 14 13 13 14 14 14 15 16 17 18 19 19 20 21 22 22 23 23 23 23 23 22 21 20 20 20 20 19 19 17 16 15 14 14 13
9 11 13 14 14 15 15 15 15 14 13 13 13 14 14 14 15 16 16 17 18 18 19 20 21 22 22 23 23 23 22 22 21 21 20 20 20 19 19 18 17 16 15 15
7 9 11 12 13 13 13 14 14 14 13 12 12 12 13 13 14 14 15 15 16 17 18 19 20 21 21 22 22 23 23 22 22 22 21 21 20 20 20 19 19 18 17 16
6 7 9 10 11 12 12 12 12 13 13 12 11 10 11 11 12 12 13 14 15 15 16 17 18 19 20 21 22 22 23 23 23 22 22 21 21 21 20 20 20 19 18 18
6 6 7 8 9 10 11 11 11 11 11 11 10 10 9 9 10 11 12 12 13 14 15 16 17 18 19 20 20 21 22 23 23 23 22 22 22 21 21 20 20 20 20 19
6 6 7 7 8 8 9 9 10 10 9 9 9 9 9 9 9 10 10 11 11 13 14 15 16 17 18 18 19 20 20 21 22 22 23 22 22 22 22 21 21 20 20 20
7 7 7 7 7 8 8 8 8 8 8 8 7 7 7 7 8 8 9 10 10 11 12 13 14 15 16 17 18 19 19 20 20 21 22 22 22 22 22 22 21 21 20 20
8 8 8 8 8 8 8 8 8 8 7 7 7 7 7 7 7 8 8 9 10 11 11 12 13 14 15 16 16 17 18 18 19 20 21 21 22 22 22 22 21 21 21 20

GEFSCGP_500_meanwind_066.txt.gz
Wind_Speed
17 17 18 19 20 22 23 24 25 25 26 27 28 29 29 30 31 32 32 33 34 34 35 36 38 38 39 40 41 42 42 42 43 43 43 42 42 42 41 41 40 39 36 35
16 17 18 19 21 21 22 23 24 25 26 27 27 28 28 28 29 30 30 31 31 33 34 35 35 36 37 37 37 38 40 40 41 42 43 42 42 42 41 41 41 41 39 38
16 16 17 19 19 20 22 22 23 24 24 25 26 26 26 26 26 26 27 27 28 29 30 30 31 33 34 34 34 34 35 36 37 39 40 41 41 41 41 41 41 41 40 40
14 15 16 17 18 19 20 20 21 22 23 23 24 25 23 24 24 24 24 25 26 26 26 26 27 28 29 29 29 30 31 32 33 34 35 36 38 39 40 40 40 40 39 40
12 13 14 16 17 18 19 20 20 21 21 22 21 21 22 22 23 23 23 23 23 23 23 23 23 24 24 24 24 25 27 28 29 30 31 32 33 34 36 37 38 38 38 39
10 11 13 15 16 17 18 18 18 18 18 18 18 18 19 20 20 20 21 21 21 20 20 21 21 20 20 20 20 21 21 21 22 24 26 27 29 30 31 33 35 36 37 37
8 10 12 14 15 15 15 16 17 17 16 17 16 16 17 18 17 17 17 17 17 17 19 19 18 17 18 18 17 16 16 16 17 17 19 21 23 25 27 29 30 33 34 35
7 9 11 13 13 13 13 14 14 14 15 15 15 16 16 16 16 16 16 16 17 17 18 18 16 16 16 15 14 12 11 11 11 11 13 15 17 20 22 24 26 28 30 32
7 8 10 11 12 12 13 12 12 12 13 13 14 14 15 15 15 16 16 16 17 17 17 16 16 15 15 14 12 12 12 10 9 9 9 11 13 15 16 19 21 22 24 26
6 8 9 10 11 11 11 11 11 12 12 12 13 14 15 15 16 16 16 16 17 17 17 16 17 16 15 14 13 13 12 11 10 8 6 7 7 9 11 12 15 17 19 21
7 8 9 10 11 11 11 11 11 12 12 12 12 13 14 15 16 16 16 17 17 17 18 18 18 17 15 14 14 14 13 12 11 10 7 5 5 5 6 7 10 12 15 17
8 9 10 11 11 12 11 11 12 12 12 12 12 13 14 15 16 16 17 17 18 18 19 20 20 19 18 16 16 15 15 14 13 12 10 8 6 4 3 3 5 7 10 12
9 10 11 11 12 12 12 12 12 12 12 12 13 13 14 15 16 17 18 18 18 19 19 20 21 21 20 19 17 17 16 15 14 13 13 12 9 7 4 3 2 3 4 7
11 11 12 12 13 13 12 12 12 13 12 12 13 13 14 15 16 17 18 19 19 19 20 20 21 21 21 20 20 19 18 18 17 16 15 14 13 11 9 6 4 3 2 3
11 11 12 13 13 13 13 12 12 12 12 12 13 13 14 15 16 17 18 19 20 21 21 21 22 22 21 21 21 21 20 19 19 18 17 16 15 14 12 10 8 5 3 2
11 12 12 13 13 13 13 12 12 12 12 12 13 13 14 15 15 16 17 19 20 21 21 21 22 22 22 22 22 22 21 20 19 18 18 17 16 15 14 12 10 8 7 5
10 12 12 13 13 13 13 13 12 12 12 12 12 13 13 14 15 15 16 18 19 20 20 21 22 22 22 22 22 21 21 21 20 19 18 17 17 16 15 14 13 12 10 9
9 10 11 12 12 13 13 13 13 12 12 12 12 13 13 13 14 15 16 17 18 19 20 20 21 21 21 22 22 21 21 20 20 20 19 18 17 17 16 15 14 14 12 11
6 8 10 11 11 12 12 12 12 12 11 11 11 12 12 12 13 14 14 15 16 17 18 19 20 20 21 21 21 21 21 21 21 20 20 19 18 17 17 16 15 15 14 13
4 5 7 8 10 10 11 11 11 11 11 10 10 10 11 12 12 13 13 14 15 16 17 17 18 19 20 20 21 21 21 21 21 21 20 20 19 19 18 17 17 16 15 14
2 3 4 6 7 8 9 9 9 9 9 9 9 9 10 11 12 12 13 14 14 15 16 17 17 18 19 19 20 20 21 22 22 21 21 20 20 19 19 18 17 17 16 15
3 3 3 4 5 6 7 7 7 7 8 8 8 8 9 10 11 11 12 12 13 14 15 16 17 17 18 18 19 19 20 21 21 21 21 21 20 20 20 19 18 17 17 16
5 4 3 3 4 4 5 6 6 6 6 7 7 8 8 8 9 10 11 12 12 13 14 15 16 16 17 17 18 18 19 20 20 20 21 21 21 20 20 20 19 18 17 17
8 6 5 5 4 4 5 5 6 6 6 6 7 7 7 8 8 9 9 10 11 12 12 13 14 15 16 16 17 17 18 19 19 20 20 20 20 20 20 20 19 19 18 18
11 9 8 7 7 6 6 6 6 6 6 6 7 7 7 8 8 8 9 9 10 11 11 12 13 13 14 15 15 16 17 18 18 19 19 20 20 20 20 20 19 19 19 18
14 13 11 10 10 9 8 8 7 7 7 7 7 7 7 8 8 8 9 9 9 10 10 11 11 12 13 14 14 14 15 16 17 18 18 18 19 19 19 19 19 18 18 18

GEFSCGP_500_meanwind_072.txt.gz
Wind_Speed
15 15 16 17 17 19 21 23 27 29 29 30 31 30 29 29 29 29 30 30 31 32 32 31 31 31 32 32 33 34 34 35 36 38 39 39 40 40 40 40 40 39 38 38
15 16 17 18 19 20 22 23 27 28 28 29 30 29 27 26 26 26 27 28 29 29 29 29 29 29 30 30 31 31 31 32 33 35 36 37 38 39 38 39 39 40 39 38
16 16 16 18 19 20 22 23 25 28 28 26 26 26 24 23 23 24 25 26 27 27 27 28 28 27 27 27 27 28 29 30 30 31 33 34 35 36 37 37 37 38 38 37
16 15 16 18 19 20 23 22 23 24 24 23 22 24 22 24 24 25 26 26 26 25 25 25 25 24 25 25 25 26 26 27 27 28 29 30 31 32 33 35 36 36 36 36
13 14 16 17 19 20 20 20 19 19 19 18 19 22 24 24 25 25 25 25 24 23 23 22 22 22 22 22 22 23 22 23 23 24 25 26 28 29 29 30 32 33 33 35
12 13 15 17 17 18 17 17 16 15 15 16 18 20 24 24 24 24 24 23 22 22 22 21 21 21 20 20 20 20 20 20 20 21 21 22 23 24 25 26 27 28 29 31
11 11 13 15 15 15 15 15 14 13 15 16 18 20 20 21 22 22 22 22 21 21 20 20 20 20 20 19 19 19 18 18 18 18 17 17 18 19 20 22 23 24 25 27
11 10 9 11 13 13 13 12 10 8 7 13 15 17 18 19 19 20 21 21 21 20 19 20 20 20 20 19 19 18 17 17 16 15 15 14 13 13 14 16 18 20 22 23
9 9 9 10 11 11 11 9 9 8 8 10 14 16 15 17 18 19 20 20 20 20 20 20 20 20 20 19 18 18 17 16 15 14 13 12 10 10 10 11 13 15 17 19
7 8 7 8 9 9 9 8 8 8 8 7 11 15 17 17 18 19 19 19 20 20 21 21 20 20 20 20 19 18 17 16 16 14 13 12 10 9 8 8 9 10 12 14
4 5 5 6 8 8 8 7 7 8 8 9 10 13 15 16 17 18 18 19 20 21 21 21 20 20 21 20 20 19 19 18 17 16 14 13 12 10 8 7 7 8 9 10
1 3 5 6 7 8 8 8 8 8 9 9 10 12 14 15 17 18 18 19 20 21 21 21 21 21 21 21 21 21 20 19 18 17 16 15 15 12 10 9 7 6 6 6
2 3 5 6 7 8 8 8 8 8 9 10 11 12 13 14 16 17 18 19 20 21 21 22 22 21 21 22 22 22 22 22 20 19 17 17 16 14 13 11 10 8 6 5
4 4 6 7 8 9 8 8 8 9 10 10 11 12 13 14 15 17 18 19 20 21 22 22 22 22 22 23 23 22 22 22 22 20 19 18 18 16 15 14 12 10 9 7
4 5 6 7 8 9 9 9 9 9 10 11 11 12 13 14 15 16 18 19 20 20 21 22 22 22 22 23 23 23 23 23 23 22 21 20 18 18 17 15 14 12 11 9
4 5 6 7 7 8 9 9 10 10 10 11 11 12 13 14 15 16 17 18 19 20 20 21 22 22 23 23 23 23 23 23 22 22 22 21 20 19 18 18 16 14 13 12
4 5 6 6 7 8 9 10 10 10 10 11 11 12 13 13 14 15 16 17 19 20 20 20 21 21 22 23 23 23 23 23 23 22 22 22 21 21 20 19 18 17 16 14
3 4 5 6 6 7 8 9 9 10 10 11 11 11 12 13 14 15 16 17 18 19 19 20 20 21 21 22 23 23 23 23 23 23 23 22 22 21 21 21 19 18 17 16
1 2 3 4 5 6 7 7 7 8 9 10 10 11 11 12 13 14 15 16 17 19 19 19 20 20 21 22 22 23 23 23 23 23 23 23 22 22 22 22 21 19 18 17
3 3 3 4 4 5 5 5 6 7 7 8 9 10 11 11 12 13 14 15 16 17 18 18 19 19 20 21 22 22 23 23 23 23 23 23 23 23 23 23 22 21 20 19
6 6 6 5 5 5 5 5 6 6 7 7 8 9 10 11 11 12 13 14 15 16 17 17 18 19 19 20 21 21 22 23 23 23 24 23 23 23 23 23 23 22 21 20
9 8 8 8 7 6 7 7 7 7 7 7 8 9 9 10 11 11 12 13 14 15 15 16 17 17 18 19 19 20 21 22 22 22 23 23 23 23 23 22 22 22 22 21
11 11 10 9 9 8 8 8 8 8 8 8 9 9 10 10 10 11 11 12 12 13 14 14 15 16 17 17 18 19 20 20 21 21 22 22 22 22 22 22 22 22 21 21
14 13 13 12 12 11 11 10 10 10 10 9 9 9 10 10 10 11 11 11 11 12 12 13 14 14 15 16 17 17 18 19 19 20 20 20 21 21 21 22 21 21 21 21
16 16 16 15 15 14 14 13 12 12 12 11 11 10 10 10 10 10 11 11 11 11 11 12 12 13 13 14 15 16 16 17 17 18 18 19 19 20 20 21 21 21 21 21
19 19 19 19 18 18 17 16 16 15 14 14 13 12 12 11 11 11 11 11 11 11 11 11 11 12 12 12 13 14 14 15 15 16 17 17 18 18 18 19 20 20 20 20